OBJECT M, 62620

Orbit data source: Space-Track

You're viewing an Uncataloged Satellite

Recently launched and/or uncataloged satellites may have evolving metadata. Metadata may include but not limited to: Owner, Maufacturer, Bus, Motor, and Mission.

OBJECT M, 62620 is a satellite in SSO that was launched on Tue, 14 Jan 2025 UTC via an FALCON 9 launch vehicle from the Air Force Western Test Range (AFWTR). Unknown objects in Earth's orbit typically refer to objects detected orbiting the Earth but have not yet been identified or cataloged. These objects could be anything from previously untracked satellites, spent rocket stages, debris from satellite collisions, or even natural meteoroids temporarily captured by Earth's gravity.

Not visible in the next 10 days
Identifier
62620, 2025-009M
Orbit
SSO
Country
Flag of TBDTBD
Related business
None
Manufacturer
Unknown
Mission
Operational Defense Imaging
Bus & Motor
Unknown
Mass
Unknown
Launch date (UTC)
2025-01-14 (1 year ago)
Launch vehicle
FALCON 9
Launch site
Air Force Western Test Range (AFWTR)
Object type
Unknown
Shape & HBR
Box + 2 Pan, 0.2 m
Radar Cross Section
0.121 m², Medium (>0.1 m² and < 1m²)

Expand to show TLE details & history
Last TLE update: 16 hours ago

TLE from 16 hours ago
0 OBJECT M
1 62620U 25009M   26171.18773039  .00090835  00000-0  10163-2 0  9995
2 62620  97.3908 261.2961 0004510 241.0740 119.0066 15.62418824 79920
Epoch: 2026-06-20T04:30Z
TLE epoch observation values (Epoch: 2026-06-20T04:30:19.905Z)
Latitude
-0.00004°
Longitude
-74.69278°
Altitude
385.3 km
Speed
7.678 km/s
True Right ascension
17h 25m 11s
True Declination
0° 00' 00"
Sunlit
Object was in full shadow at epoch
Visualization orbit readout
Latitude
Unknown
Longitude
Unknown
Altitude
Unknown
Speed
Unknown
Apparent Right ascension
Unknown
Apparent Declination
Unknown
Sunlit
N/A
Visualization observer readout
Local Sidereal Time
07:24:03
Azimuth
Unknown
Elevation
Unknown
Doppler factor
Unknown
Orbital elements
Apogee altitude
380.628 km
Perigee altitude
374.534 km
Semi-major axis
6,755.718 km
Eccentricity
0.00045
Inclination
97.3908°
RAAN
261.2961°
Arg. of periapsis
241.074°
True anomaly
119.05179°
Mean anomaly
119.0066°
Eccentric anomaly
119.02919°
Mean motion
3.90873 °/min
Orbital period
92.1 mins
BSTAR
0.0010163
Loading maneuver chart data...
Computing Atmospheric mass density...
Loading historical data...
Loading historical data...
Loading historical data...
Loading historical data...
Loading historical data...
Loading historical data...
Loading historical data...

Documentation

Showing up to 5 results
|